Meadow Lake, CO

7:49 PM MST on November 22, 2017 (GMT -0700)
Meadow Lake

Weather History for KFLY - February, 2014

Change the Weather History Date:

Thursday, February 6, 2014

  Actual Average (KCOS) Record (KCOS)
Temperature  
Mean Temperature -4 °F -  
Max Temperature 13 °F 38 °F 72 °F (2015)
Min Temperature -16 °F 15 °F -16 °F (1899)
Degree Days  
Heating Degree Days 69    
Moisture  
Dew Point -11 °F    
Average Humidity 75    
Maximum Humidity 85    
Minimum Humidity 62    
Precipitation  
Precipitation 0.00 in - - ()
Sea Level Pressure  
Sea Level Pressure 29.88 in    
Wind  
Wind Speed 4 mph (WSW)    
Max Wind Speed 12 mph    
Max Gust Speed -    
Visibility 10 miles    
Events      
Averages and records for this station are not official NWS values.
T = Trace of Precipitation, MM = Missing Value Source: NWS Daily Summary

Daily Weather History Graph

Daily Weather History Graph

Search for Another Location

Airport or City:

Trip Planner

Search our weather history database for the weather conditions in past years. The results will help you decide how hot, cold, wet, or windy it might be!

Date:

Astronomy

Feb. 06, 2014 Rise Set
Actual Time 6:59 AM MST 5:25 PM MST
Civil Twilight 6:31 AM MST 5:53 PM MST
Nautical Twilight 6:00 AM MST 6:25 PM MST
Astronomical Twilight 5:29 AM MST 6:56 PM MST
Moon 10:59 AM MST (2/6) 12:17 AM MST (2/6)
Length of Visible Light 11h 21m
Length of Day
10h 25m
Waxing Crescent, 50% of the Moon is Illuminated
Feb 6
Waxing Crescent
Feb 6
First Quarter
Feb 14
Full
Feb 22
Last Quarter
Mar 1
New

Hourly Weather History & Observations

Time (MST) Temp. Windchill Dew Point Humidity Pressure Visibility Wind Dir Wind Speed Gust Speed Precip Events Conditions
12:11 AM -13.9 °F -23.7 °F -19.3 °F 77% 30.02 in 10.0 mi WSW 3.5 mph - N/A   Clear
12:31 AM -14.8 °F -24.8 °F -20.2 °F 77% 30.01 in 10.0 mi WSW 3.5 mph - N/A   Scattered Clouds
12:51 AM -14.8 °F -24.8 °F -20.2 °F 77% 30.00 in 10.0 mi WSW 3.5 mph - N/A   Scattered Clouds
1:11 AM -14.8 °F - -20.2 °F 77% 29.99 in 10.0 mi North - - N/A   Mostly Cloudy
1:31 AM -15.2 °F -25.2 °F -20.7 °F 76% 29.99 in 10.0 mi WSW 3.5 mph - N/A   Scattered Clouds
1:51 AM -15.5 °F - -20.9 °F 77% 29.99 in 10.0 mi North - - N/A   Clear
2:11 AM -14.8 °F - -19.8 °F 78% 29.98 in 10.0 mi North - - N/A   Scattered Clouds
2:31 AM -15.2 °F - -20.7 °F 76% 29.97 in 5.0 mi Calm Calm - N/A   Haze
2:51 AM -16.1 °F - -21.8 °F 75% 29.97 in 10.0 mi North - - N/A   Scattered Clouds
3:11 AM -15.9 °F - -21.3 °F 77% 29.95 in 10.0 mi Calm Calm - N/A   Mostly Cloudy
3:31 AM -14.8 °F - -20.2 °F 77% 29.95 in 10.0 mi North - - N/A   Overcast
3:51 AM -15.3 °F - -20.9 °F 76% 29.95 in 10.0 mi North - - N/A   Overcast
4:11 AM -15.7 °F - -21.1 °F 77% 29.95 in 10.0 mi Calm Calm - N/A   Mostly Cloudy
4:31 AM -16.1 °F - -22.0 °F 74% 29.95 in 10.0 mi Calm Calm - N/A   Scattered Clouds
4:51 AM -16.2 °F - -22.0 °F 75% 29.95 in 10.0 mi North - - N/A   Clear
5:11 AM -16.6 °F - -22.2 °F 76% 29.95 in 10.0 mi North - - N/A   Clear
5:31 AM -15.9 °F - -21.1 °F 77% 29.95 in 10.0 mi North - - N/A   Clear
5:51 AM -16.1 °F -33.7 °F -21.5 °F 77% 29.94 in 10.0 mi WSW 8.1 mph - N/A   Clear
6:11 AM -15.7 °F - -21.3 °F 76% 29.94 in 10.0 mi North - - N/A   Clear
6:31 AM -15.5 °F - -21.1 °F 76% 29.94 in 10.0 mi North - - N/A   Clear
6:51 AM -15.7 °F - -21.3 °F 76% 29.94 in 10.0 mi North - - N/A   Clear
7:11 AM -15.9 °F - -21.6 °F 75% 29.94 in 10.0 mi North - - N/A   Clear
7:31 AM -13.4 °F - -18.6 °F 77% 29.94 in 10.0 mi North - - N/A   Clear
7:51 AM -11.4 °F - -16.2 °F 79% 29.94 in 10.0 mi North - - N/A   Clear
8:11 AM -9.4 °F - -14.3 °F 79% 29.95 in 10.0 mi North - - N/A   Clear
8:31 AM -7.8 °F - -11.9 °F 82% 29.94 in 10.0 mi North - - N/A   Clear
8:51 AM -5.8 °F - -9.8 °F 83% 29.94 in 10.0 mi North - - N/A   Clear
9:11 AM -4.5 °F - -8.5 °F 83% 29.94 in 10.0 mi North - - N/A   Clear
9:31 AM -3.6 °F - -7.6 °F 83% 29.94 in 10.0 mi North - - N/A   Clear
9:51 AM -2.4 °F - -6.3 °F 83% 29.94 in 7.0 mi North - - N/A   Clear
10:11 AM -2.2 °F - -6.9 °F 80% 29.93 in 10.0 mi North - - N/A   Clear
10:31 AM -2.0 °F - -7.4 °F 78% 29.92 in 10.0 mi North - - N/A   Clear
10:51 AM -0.4 °F - -6.0 °F 77% 29.92 in 7.0 mi North - - N/A   Clear
11:11 AM 0.7 °F - -5.8 °F 74% 29.91 in 7.0 mi North - - N/A   Clear
11:31 AM 0.1 °F - -6.9 °F 72% 29.90 in 10.0 mi North - - N/A   Clear
11:51 AM 1.8 °F - -6.3 °F 69% 29.88 in 10.0 mi North - - N/A   Clear
12:11 PM 2.8 °F - -6.2 °F 66% 29.87 in 10.0 mi North - - N/A   Clear
12:31 PM 4.1 °F -12.0 °F -5.8 °F 64% 29.85 in 10.0 mi SW 11.5 mph - N/A   Clear
12:51 PM 4.8 °F - -5.3 °F 63% 29.84 in 10.0 mi North - - N/A   Clear
1:11 PM 5.4 °F - -4.9 °F 63% 29.83 in 10.0 mi North - - N/A   Clear
1:31 PM 6.3 °F - -4.4 °F 62% 29.81 in 10.0 mi North - - N/A   Clear
1:51 PM 7.3 °F - -3.1 °F 62% 29.81 in 10.0 mi North - - N/A   Clear
2:11 PM 8.2 °F - -2.4 °F 62% 29.81 in 10.0 mi North - - N/A   Clear
2:31 PM 8.1 °F - -2.4 °F 62% 29.80 in 10.0 mi North - - N/A   Clear
2:51 PM 8.4 °F - -2.2 °F 62% 29.80 in 10.0 mi North - - N/A   Clear
3:11 PM 8.6 °F - -1.7 °F 63% 29.80 in 10.0 mi North - - N/A   Clear
3:31 PM 7.7 °F - -2.4 °F 63% 29.80 in 10.0 mi North - - N/A   Clear
3:51 PM 6.8 °F - -2.6 °F 66% 29.81 in 10.0 mi North - - N/A   Clear
4:11 PM 6.4 °F - -2.4 °F 67% 29.80 in 10.0 mi North - - N/A   Clear
4:31 PM 5.9 °F - -3.1 °F 67% 29.81 in 10.0 mi North - - N/A   Clear
4:51 PM 4.6 °F - -3.5 °F 69% 29.81 in 10.0 mi North - - N/A   Clear
5:11 PM 2.5 °F - -4.4 °F 73% 29.80 in 10.0 mi North - - N/A   Clear
5:31 PM -0.0 °F - -5.4 °F 78% 29.80 in 10.0 mi North - - N/A   Clear
5:51 PM -2.2 °F - -6.7 °F 81% 29.81 in 10.0 mi North - - N/A   Clear
6:11 PM -3.8 °F - -7.6 °F 84% 29.81 in 10.0 mi North - - N/A   Clear
6:31 PM -5.3 °F - -8.9 °F 84% 29.82 in 10.0 mi North - - N/A   Clear
6:51 PM -6.2 °F - -9.9 °F 84% 29.83 in 10.0 mi North - - N/A   Clear
7:11 PM -6.5 °F - -9.9 °F 85% 29.83 in 10.0 mi North - - N/A   Clear
7:31 PM -6.3 °F -21.9 °F -9.8 °F 85% 29.81 in 10.0 mi West 8.1 mph - N/A   Clear
7:51 PM -5.4 °F -19.5 °F -9.4 °F 83% 29.80 in 10.0 mi West 6.9 mph - N/A   Clear
8:11 PM -5.1 °F - -9.4 °F 82% 29.80 in 10.0 mi North - - N/A   Clear
8:31 PM -5.1 °F - -9.4 °F 82% 29.81 in 10.0 mi North - - N/A   Clear
8:51 PM -4.5 °F - -8.9 °F 82% 29.80 in 10.0 mi North - - N/A   Clear
9:11 PM -5.4 °F - -10.5 °F 79% 29.81 in 10.0 mi North - - N/A   Clear
9:31 PM -7.1 °F -18.1 °F -11.6 °F 81% 29.81 in 10.0 mi North 4.6 mph - N/A   Clear
9:51 PM -4.4 °F - -9.0 °F 80% 29.81 in 10.0 mi North - - N/A   Clear
10:11 PM -3.8 °F - -8.3 °F 81% 29.81 in 10.0 mi North - - N/A   Clear
10:31 PM -0.8 °F - -5.4 °F 81% 29.80 in 10.0 mi North - - N/A   Clear
10:51 PM 0.1 °F - -4.9 °F 79% 29.80 in 10.0 mi North - - N/A   Clear
11:11 PM 1.4 °F - -3.6 °F 79% 29.80 in 10.0 mi North - - N/A   Clear
11:31 PM 8.1 °F -6.2 °F 2.5 °F 78% 29.79 in 10.0 mi West 10.4 mph - N/A   Clear
11:51 PM 13.1 °F - 5.0 °F 70% 29.78 in 10.0 mi North - - N/A   Clear